Location: Lake Almanor
(40.2485°N, 121.1442°W)
Time: 07:25:48
(UTC-08:00)

STARLINK-1087 - Pass Details

Date: 03 February 2020
Orbit: 348 x 351 km, 53.0° (Epoch: 18 February)

Event Time Altitude Azimuth Distance (km) Brightness Sun altitude
Rises 17:58:13 0° 305° (NW) 2,151 7.3 -6.8°
Maximum altitude 18:03:06 50° 223° (SW) 452 3.7 -7.7°
Drops below altitude 10° 18:05:54 10° 147° (SSE) 1,296 5.3 -8.2°
Sets 18:07:55 0° 141° (SE) 2,133 6.4 -8.6°
